Change the Weather History Date:

Thursday, January 16, 2014

  Actual Average Record
Temperature  
Mean Temperature 29 °F 25 °F  
Max Temperature 37 °F 33 °F 57 °F (2012)
Min Temperature 20 °F 17 °F -18 °F (2009)
Degree Days  
Heating Degree Days 36 40  
Month to date heating degree days 693 636  
Since 1 July heating degree days 3069 2917  
Cooling Degree Days 0 0  
Month to date cooling degree days 0 0  
Year to date cooling degree days 0 0  
Moisture  
Dew Point 25 °F    
Average Humidity 79    
Maximum Humidity 88    
Minimum Humidity 70    
Precipitation  
Precipitation 0.01 in 0.07 in 0.15 in (2003)
Month to date precipitation 0.65 1.22  
Year to date precipitation 0.65 1.22  
Sea Level Pressure  
Sea Level Pressure 29.73 in    
Wind  
Wind Speed 17 mph (SSW)    
Max Wind Speed 29 mph    
Max Gust Speed 38 mph    
Visibility 6 miles    
Events Fog , Snow    
T = Trace of Precipitation, MM = Missing Value Source: NWS Daily Summary

Daily Weather History Graph

Daily Weather History Graph

Search for Another Location

Airport or City:

Trip Planner

Search our weather history database for the weather conditions in past years. The results will help you decide how hot, cold, wet, or windy it might be!

Date:

Astronomy

Jan. 16, 2014 Rise Set
Actual Time 7:12 AM CST 4:53 PM CST
Civil Twilight 6:43 AM CST 5:23 PM CST
Nautical Twilight 6:09 AM CST 5:56 PM CST
Astronomical Twilight 5:37 AM CST 6:28 PM CST
Moon 5:44 PM CST (1/16) 7:06 AM CST (1/16)
Length of Visible Light 10h 40m
Length of Day
9h 40m
Full, 100% of the Moon is Illuminated
Jan 16
Full
Jan 23
Last Quarter
Jan 30
New
Feb 6
First Quarter
Feb 14
Full

Hourly Weather History & Observations

Time (CST) Temp. Windchill Dew Point Humidity Pressure Visibility Wind Dir Wind Speed Gust Speed Precip Events Conditions
12:53 AM 21.9 °F 8.2 °F 16.0 °F 78% 29.95 in 10.0 mi South 16.1 mph - N/A   Overcast
1:53 AM 23.0 °F 9.2 °F 17.1 °F 78% 29.91 in 10.0 mi South 17.3 mph - N/A   Overcast
2:53 AM 24.1 °F 10.1 °F 18.0 °F 77% 29.88 in 10.0 mi South 18.4 mph - N/A   Overcast
3:53 AM 26.1 °F 11.6 °F 17.1 °F 69% 29.81 in 8.0 mi South 21.9 mph 32.2 mph 0.00 in Snow Light Snow
4:16 AM 24.8 °F 9.0 °F 17.6 °F 74% 29.78 in 2.5 mi SSW 25.3 mph 33.4 mph 0.00 in Snow Light Snow
4:26 AM 24.8 °F 9.6 °F 19.4 °F 80% 29.78 in 1.0 mi South 23.0 mph 29.9 mph 0.00 in Snow Light Snow
4:29 AM 24.8 °F 10.0 °F 21.2 °F 86% 29.78 in 0.8 mi SSW 21.9 mph 29.9 mph 0.00 in Snow Light Snow
4:43 AM 24.8 °F 10.3 °F 21.2 °F 86% 29.77 in 0.5 mi South 20.7 mph 27.6 mph 0.00 in Fog , Snow Snow
4:53 AM 25.0 °F 9.9 °F 21.9 °F 88% 29.79 in 0.8 mi South 23.0 mph 27.6 mph 0.00 in Snow Light Snow
5:02 AM 24.8 °F 10.7 °F 21.2 °F 86% 29.76 in 1.2 mi South 19.6 mph 28.8 mph 0.00 in Snow Light Snow
5:13 AM 24.8 °F 10.7 °F 21.2 °F 86% 29.75 in 1.8 mi South 19.6 mph 28.8 mph 0.00 in Snow Light Snow
5:22 AM 24.8 °F 10.0 °F 21.2 °F 86% 29.73 in 1.5 mi South 21.9 mph 28.8 mph 0.00 in Snow Light Snow
5:27 AM 24.8 °F 10.3 °F 21.2 °F 86% 29.72 in 3.0 mi South 20.7 mph 29.9 mph 0.00 in Snow Light Snow
5:53 AM 25.0 °F 9.9 °F 21.9 °F 88% 29.76 in 10.0 mi South 23.0 mph 27.6 mph 0.00 in Snow Light Snow
6:14 AM 24.8 °F 11.1 °F 21.2 °F 86% 29.74 in 9.0 mi South 18.4 mph 25.3 mph 0.00 in Snow Light Snow
6:53 AM 26.1 °F 12.0 °F 21.9 °F 84% 29.75 in 9.0 mi South 20.7 mph - 0.00 in Snow Light Snow
7:53 AM 27.0 °F 13.2 °F 23.0 °F 85% 29.73 in 8.0 mi South 20.7 mph 27.6 mph 0.00 in Snow Light Snow
8:44 AM 26.6 °F 13.1 °F 24.8 °F 93% 29.70 in 2.0 mi South 19.6 mph 26.5 mph 0.00 in Snow Light Snow
8:53 AM 28.0 °F 14.6 °F 24.1 °F 85% 29.73 in 3.0 mi South 20.7 mph 26.5 mph 0.00 in Snow Light Snow
9:53 AM 28.9 °F 15.8 °F 25.0 °F 85% 29.74 in 4.0 mi SSW 20.7 mph 28.8 mph 0.00 in Snow Light Snow
10:00 AM 28.4 °F 14.4 °F 24.8 °F 86% 29.70 in 0.8 mi SSW 23.0 mph 31.1 mph 0.00 in Snow Light Snow
10:21 AM 28.4 °F 15.4 °F 26.6 °F 93% 29.69 in 2.0 mi SSW 19.6 mph - 0.01 in Snow Light Snow
10:40 AM 28.4 °F 15.4 °F 26.6 °F 93% 29.68 in 0.5 mi SSW 19.6 mph - 0.01 in Snow Snow
10:42 AM 28.4 °F 15.8 °F 26.6 °F 93% 29.68 in 2.0 mi SSW 18.4 mph - 0.01 in Snow Light Snow
10:49 AM 28.4 °F 15.8 °F 26.6 °F 93% 29.68 in 4.0 mi SSW 18.4 mph 25.3 mph 0.01 in   Overcast
10:53 AM 28.9 °F 16.1 °F 27.0 °F 92% 29.71 in 4.0 mi SSW 19.6 mph 25.3 mph 0.01 in   Overcast
11:18 AM 30.2 °F 17.1 °F 26.6 °F 86% 29.66 in 9.0 mi SSW 21.9 mph - 0.00 in   Overcast
11:53 AM 32.0 °F 20.5 °F 27.0 °F 82% 29.66 in 10.0 mi SSW 18.4 mph 26.5 mph 0.00 in   Overcast
12:53 PM 34.0 °F 22.4 °F 27.0 °F 75% 29.63 in 10.0 mi SSW 20.7 mph - N/A   Overcast
1:53 PM 37.0 °F 26.4 °F 28.0 °F 70% 29.62 in 10.0 mi SSW 20.7 mph - N/A   Mostly Cloudy
2:53 PM 37.0 °F 27.7 °F 28.9 °F 73% 29.62 in 10.0 mi SW 16.1 mph - N/A   Overcast
3:53 PM 36.0 °F 23.7 °F 30.9 °F 82% 29.65 in 2.0 mi WSW 26.5 mph 34.5 mph 0.00 in Snow Snow
4:04 PM 35.6 °F 23.4 °F 30.2 °F 81% 29.63 in 1.8 mi West 25.3 mph 33.4 mph 0.00 in Snow Light Snow
4:18 PM 33.8 °F 22.8 °F 30.2 °F 87% 29.64 in 10.0 mi West 18.4 mph 27.6 mph 0.00 in Snow Light Snow
4:20 PM 33.8 °F 22.8 °F 30.2 °F 87% 29.64 in 7.0 mi West 18.4 mph - 0.00 in   Overcast
4:53 PM 34.0 °F 26.0 °F 30.9 °F 89% 29.68 in 10.0 mi West 10.4 mph - 0.00 in   Overcast
5:53 PM 34.0 °F 24.2 °F 28.9 °F 82% 29.72 in 10.0 mi West 15.0 mph - 0.00 in   Mostly Cloudy
6:53 PM 33.1 °F 26.1 °F 27.0 °F 78% 29.73 in 10.0 mi WNW 8.1 mph - N/A   Overcast
7:53 PM 32.0 °F 27.5 °F 27.0 °F 82% 29.74 in 10.0 mi SSW 4.6 mph - N/A   Overcast
8:53 PM 30.0 °F 23.2 °F 27.0 °F 88% 29.75 in 10.0 mi SSW 6.9 mph - N/A   Mostly Cloudy
9:53 PM 30.0 °F 25.2 °F 27.0 °F 88% 29.73 in 10.0 mi South 4.6 mph - N/A   Mostly Cloudy
10:53 PM 32.0 °F 21.2 °F 28.9 °F 88% 29.72 in 8.0 mi SW 16.1 mph 20.7 mph 0.00 in Snow Light Snow
11:53 PM 32.0 °F 21.6 °F 28.0 °F 85% 29.71 in 10.0 mi WSW 15.0 mph - N/A   Mostly Cloudy